Back to catalog

HULIANWANG DIGUI-141

AliveCommunicationsLEO
NORAD 67439·PAYLOAD·🇨🇳 China

Launched Jan 13, 2026 from Wenchang Space Launch Site

Loading…

Next Passes (next 24 hours)

TLE

FreshSource: Space-Track

Epoch: Sep 14, 2026, 07:26 UTC

1 67439U 26007E   26257.31021237 -.00000080  00000-0  93905-4 0  9994
2 67439  50.0035 126.0950 0000435   0.4298 359.6575 13.29330350 32646

Track HULIANWANG DIGUI-141 in real time with AllMySat

Download on the App Store